Tracking 30743 objects as of 21-Jun-2025
HD Live streaming from Space Station
objects crossing your sky now

COSMOS 1275 DEB

Track COSMOS 1275 DEB now!
10-day predictions


NORAD ID: 13816
Int'l Code: 1981-053HP
Perigee: 829.4 km
Apogee: 1,061.5 km
Inclination: 83.0 °
Period: 103.8 minutes
Semi major axis: 7316 km
RCS: 0.0104 m2 (small)
Launch date: June 4, 1981
Source: Commonwealth of Independent States (former USSR) (CIS)
Launch site: PLESETSK MISSILE AND SPACE COMPLEX (PKMTR)

Note: This is SATELLITE DEBRIS
Your satellite tracking list
Your tracking list is empty




NASA's NSSDC Master Catalog

Two Line Element Set (TLE):
1 13816U 81053HL  25171.23280562  .00002141  00000-0  16372-2 0  9999
2 13816  82.9857 344.4570 0158677 139.1483  33.1049 13.87242699110070
Source of the keplerian elements: AFSPC